Location: Newark
(45.8667°N, 9.7333°E)
Time: 03:27:12
(UTC+00:00)

A-11 Canister half - Pass Details

Date: 27 January 2020
Orbit: 1517 x 1683 km, 47.2° (Epoch: 17 February)

Event Time Altitude Azimuth Distance (km) Brightness Sun altitude
Rises 21:33:01 0° 216° (SW) 4,772 - -52.9°
Reaches altitude 10° 21:36:18 10° 211° (SSW) 3,766 - -53.4°
Maximum altitude 21:45:08 46° 142° (SE) 1,990 - -54.5°
Drops below altitude 10° 21:53:47 10° 73° (ENE) 3,689 - -55.6°
Sets 21:56:57 0° 68° (ENE) 4,667 - -56.0°
